• In Hungary
  • List of Countries
  • For 7 days
  • Water Temperature
  • Satellite Maps
  • Weather Map
  • News
  • Weather Widgets
  • user-avatar
    Login

    Hourly Weather Santa Fe

    Today, 23 November, Thursday

    Time Temperature Precipitation Wind Pressure Humidity
    00:00 +21°C° 0 mm 5 mps 755 mmHg 36%
    01:00 +21°C° 0 mm 5 mps 755 mmHg 35%
    02:00 +21°C° 0 mm 6 mps 754 mmHg 34%
    03:00 +20°C° 0 mm 6 mps 754 mmHg 34%
    04:00 +20°C° 0 mm 5 mps 754 mmHg 35%
    05:00 +20°C° 0 mm 5 mps 754 mmHg 36%
    06:00 +22°C° 0 mm 6 mps 754 mmHg 34%
    07:00 +24°C° 0 mm 6 mps 754 mmHg 32%
    08:00 +27°C° 0 mm 7 mps 755 mmHg 30%
    09:00 +29°C° 0 mm 7 mps 754 mmHg 27%
    10:00 +33°C° 0 mm 7 mps 754 mmHg 25%
    11:00 +35°C° 0 mm 7 mps 754 mmHg 22%
    12:00 +38°C° 0 mm 7 mps 753 mmHg 20%
    13:00 +39°C° 0 mm 7 mps 752 mmHg 17%
    14:00 +40°C° 0 mm 7 mps 752 mmHg 15%
    15:00 +40°C° 0 mm 6 mps 751 mmHg 15%
    16:00 +39°C° 0 mm 6 mps 751 mmHg 15%
    17:00 +39°C° 0 mm 5 mps 751 mmHg 15%
    18:00 +35°C° 0 mm 4 mps 751 mmHg 20%
    19:00 +31°C° 0 mm 3 mps 752 mmHg 24%
    20:00 +28°C° 0 mm 2 mps 752 mmHg 29%
    21:00 +27°C° 0 mm 3 mps 753 mmHg 32%
    22:00 +26°C° 0 mm 3 mps 755 mmHg 36%
    23:00 +25°C° 0 mm 4 mps 756 mmHg 39%

    Tomorrow, 24 November, Friday

    Time Temperature Precipitation Wind Pressure Humidity
    00:00 +22°C° 0 mm 5 mps 756 mmHg 48%
    01:00 +19°C° 0 mm 6 mps 757 mmHg 56%
    02:00 +16°C° 0 mm 8 mps 758 mmHg 64%
    03:00 +16°C° 0 mm 7 mps 759 mmHg 63%
    04:00 +15°C° 0 mm 7 mps 759 mmHg 61%
    05:00 +14°C° 0 mm 6 mps 760 mmHg 60%
    06:00 +15°C° 0 mm 6 mps 761 mmHg 53%
    07:00 +16°C° 0 mm 6 mps 761 mmHg 47%
    08:00 +19°C° 0 mm 6 mps 762 mmHg 40%
    09:00 +21°C° 0 mm 6 mps 762 mmHg 34%
    10:00 +23°C° 0 mm 6 mps 761 mmHg 29%
    11:00 +26°C° 0 mm 5 mps 761 mmHg 23%
    12:00 +26°C° 0 mm 6 mps 761 mmHg 23%
    13:00 +27°C° 0 mm 6 mps 760 mmHg 22%
    14:00 +28°C° 0 mm 6 mps 760 mmHg 22%
    15:00 +26°C° 0.2 mm 6 mps 759 mmHg 26%
    16:00 +24°C° 0.2 mm 6 mps 759 mmHg 31%
    17:00 +22°C° 0.2 mm 6 mps 759 mmHg 36%
    18:00 +20°C° 0.4 mm 5 mps 759 mmHg 49%
    19:00 +18°C° 0.4 mm 4 mps 760 mmHg 61%
    20:00 +16°C° 0.4 mm 3 mps 760 mmHg 74%
    21:00 +14°C° 0.1 mm 3 mps 761 mmHg 78%
    22:00 +14°C° 0.1 mm 3 mps 761 mmHg 82%
    23:00 +13°C° 0.1 mm 3 mps 761 mmHg 86%

    Day after tomorrow, 25 November, Saturday

    Time Temperature Precipitation Wind Pressure Humidity
    00:00 +14°C° 0 mm 2 mps 761 mmHg 88%
    01:00 +13°C° 0 mm 2 mps 761 mmHg 90%
    02:00 +13°C° 0 mm 2 mps 760 mmHg 91%
    03:00 +13°C° 0 mm 2 mps 761 mmHg 92%
    04:00 +13°C° 0 mm 2 mps 761 mmHg 93%
    05:00 +12°C° 0 mm 2 mps 761 mmHg 93%
    06:00 +15°C° 0 mm 2 mps 761 mmHg 84%
    07:00 +17°C° 0 mm 2 mps 761 mmHg 74%
    08:00 +20°C° 0 mm 2 mps 761 mmHg 65%
    09:00 +24°C° 0 mm 2 mps 761 mmHg 55%
    10:00 +26°C° 0 mm 2 mps 761 mmHg 46%
    11:00 +29°C° 0 mm 2 mps 761 mmHg 36%
    12:00 +31°C° 0 mm 2 mps 760 mmHg 34%
    13:00 +32°C° 0 mm 2 mps 759 mmHg 31%
    14:00 +33°C° 0 mm 1 mps 758 mmHg 28%
    15:00 +34°C° 0 mm 2 mps 758 mmHg 27%
    16:00 +34°C° 0 mm 2 mps 757 mmHg 27%
    17:00 +32°C° 0 mm 2 mps 757 mmHg 26%
    18:00 +30°C° 0 mm 2 mps 757 mmHg 32%
    19:00 +27°C° 0 mm 2 mps 757 mmHg 37%
    20:00 +25°C° 0 mm 3 mps 757 mmHg 43%
    21:00 +24°C° 0 mm 3 mps 758 mmHg 51%
    22:00 +22°C° 0 mm 3 mps 758 mmHg 58%
    23:00 +20°C° 0 mm 3 mps 758 mmHg 65%

    26 November, Sunday

    Time Temperature Precipitation Wind Pressure Humidity
    00:00 +20°C° 0 mm 3 mps 758 mmHg 69%
    01:00 +19°C° 0 mm 3 mps 758 mmHg 73%
    02:00 +19°C° 0 mm 3 mps 758 mmHg 76%
    03:00 +18°C° 0 mm 3 mps 757 mmHg 80%
    04:00 +18°C° 0 mm 3 mps 757 mmHg 84%
    05:00 +17°C° 0 mm 2 mps 757 mmHg 88%
    06:00 +20°C° 0 mm 3 mps 757 mmHg 76%
    07:00 +24°C° 0 mm 3 mps 757 mmHg 65%
    08:00 +27°C° 0 mm 3 mps 757 mmHg 54%
    09:00 +30°C° 0 mm 3 mps 756 mmHg 45%
    10:00 +32°C° 0 mm 2 mps 756 mmHg 36%
    11:00 +35°C° 0 mm 2 mps 755 mmHg 27%
    12:00 +36°C° 0 mm 2 mps 754 mmHg 24%
    13:00 +36°C° 0 mm 1 mps 753 mmHg 21%
    14:00 +37°C° 0 mm 1 mps 752 mmHg 19%
    15:00 +37°C° 0 mm 1 mps 752 mmHg 18%
    16:00 +37°C° 0 mm 1 mps 751 mmHg 18%
    17:00 +36°C° 0 mm 1 mps 751 mmHg 18%
    18:00 +35°C° 0 mm 2 mps 751 mmHg 22%
    19:00 +31°C° 0 mm 3 mps 752 mmHg 26%
    20:00 +28°C° 0 mm 3 mps 752 mmHg 30%
    21:00 +28°C° 0 mm 4 mps 752 mmHg 34%
    22:00 +27°C° 0 mm 4 mps 753 mmHg 38%
    23:00 +26°C° 0 mm 5 mps 753 mmHg 42%

    27 November, Monday

    Time Temperature Precipitation Wind Pressure Humidity
    00:00 +25°C° 0 mm 4 mps 753 mmHg 45%
    01:00 +23°C° 0 mm 4 mps 753 mmHg 49%
    02:00 +24°C° 0 mm 3 mps 753 mmHg 53%
    03:00 +22°C° 0.1 mm 3 mps 754 mmHg 57%
    04:00 +21°C° 0.1 mm 3 mps 755 mmHg 62%
    05:00 +20°C° 0.1 mm 3 mps 756 mmHg 67%
    06:00 +22°C° 0.2 mm 3 mps 757 mmHg 64%
    07:00 +24°C° 0.2 mm 3 mps 758 mmHg 61%
    08:00 +26°C° 0.2 mm 2 mps 759 mmHg 59%
    09:00 +27°C° 0 mm 4 mps 759 mmHg 55%
    10:00 +28°C° 0 mm 5 mps 759 mmHg 51%
    11:00 +29°C° 0 mm 7 mps 760 mmHg 47%
    12:00 +30°C° 0 mm 7 mps 760 mmHg 44%
    13:00 +32°C° 0 mm 7 mps 760 mmHg 40%
    14:00 +32°C° 0 mm 7 mps 760 mmHg 37%
    15:00 +32°C° 0 mm 7 mps 760 mmHg 37%
    16:00 +30°C° 0 mm 7 mps 760 mmHg 37%
    17:00 +29°C° 0 mm 7 mps 760 mmHg 37%
    18:00 +27°C° 0 mm 7 mps 761 mmHg 40%
    19:00 +24°C° 0 mm 6 mps 761 mmHg 43%
    20:00 +22°C° 0 mm 5 mps 762 mmHg 46%
    21:00 +21°C° 0 mm 5 mps 763 mmHg 50%
    22:00 +19°C° 0 mm 5 mps 763 mmHg 53%
    23:00 +18°C° 0 mm 4 mps 764 mmHg 56%

    28 November, Tuesday

    Time Temperature Precipitation Wind Pressure Humidity
    00:00 +17°C° 0 mm 4 mps 764 mmHg 57%
    01:00 +15°C° 0 mm 4 mps 764 mmHg 57%
    02:00 +14°C° 0 mm 4 mps 764 mmHg 58%
    03:00 +13°C° 0 mm 4 mps 764 mmHg 59%
    04:00 +12°C° 0 mm 4 mps 764 mmHg 59%
    05:00 +12°C° 0 mm 4 mps 765 mmHg 60%
    06:00 +14°C° 0 mm 4 mps 765 mmHg 52%
    07:00 +17°C° 0 mm 4 mps 765 mmHg 43%
    08:00 +18°C° 0 mm 4 mps 765 mmHg 35%
    09:00 +21°C° 0 mm 4 mps 765 mmHg 29%
    10:00 +24°C° 0 mm 3 mps 764 mmHg 24%
    11:00 +27°C° 0 mm 3 mps 764 mmHg 18%
    12:00 +28°C° 0 mm 3 mps 763 mmHg 17%
    13:00 +30°C° 0 mm 3 mps 762 mmHg 15%
    14:00 +31°C° 0 mm 3 mps 761 mmHg 13%
    15:00 +31°C° 0 mm 3 mps 761 mmHg 13%
    16:00 +31°C° 0 mm 3 mps 760 mmHg 13%
    17:00 +32°C° 0 mm 4 mps 759 mmHg 13%
    18:00 +29°C° 0 mm 4 mps 760 mmHg 17%
    19:00 +26°C° 0 mm 4 mps 760 mmHg 21%
    20:00 +23°C° 0 mm 4 mps 760 mmHg 25%
    21:00 +21°C° 0 mm 4 mps 760 mmHg 32%
    22:00 +20°C° 0 mm 4 mps 761 mmHg 39%
    23:00 +19°C° 0 mm 3 mps 761 mmHg 45%
    Show more